Regional Weather Roundup
Issued by NWS

Home | Current Version | Previous Version | Graphics & Text | Print | Product List | Glossary On
Versions: 1 2 3 4 5 6 7 8 9 10 11 12 13 14 15 16 17 18 19 20 21 22 23 24 25 26 27 28 29 30 31 32 33 34 35 36 37 38 39 40 41 42 43 44 45 46 47 48 49 50
000
ASUS43 KMPX 111201
RWRMN
WEATHER ROUNDUP FOR MINNESOTA
NATIONAL WEATHER SERVICE TWIN CITIES/CHANHASSEN MN
600 AM CST THU FEB 11 2016


NOTE: "FAIR" INDICATES FEW OR NO CLOUDS BELOW 12,000 FEET WITH NO
SIGNIFICANT WEATHER AND/OR OBSTRUCTIONS TO VISIBILITY. N/A MEANS
CURRENT SKY AND/OR WEATHER CONDITIONS ARE NOT AVAILABLE.

MNZ060>063-068>070-111300-
   Twin Cities Metro

CITY           SKY/WX    TMP DP  RH WIND       PRES   REMARKS
TWIN CITIES    CLOUDY     4  -6  63 NE3       30.31S
6HR MIN TEMP:   2; 6HR MAX TEMP:   9;

ST PAUL        PTCLDY     3  -5  69 CALM      30.33S
CRYSTAL        CLOUDY    -2  -7  79 CALM      30.30S
BLAINE         CLOUDY     0  -6  78 CALM      30.30S
LAKEVILLE      PTCLDY    -4  -8  84 CALM      30.30R
EDEN PRAIRIE   CLOUDY     0  -7  72 CALM      30.30R
6HR MIN TEMP:  -2; 6HR MAX TEMP:   8;

SOUTH ST PAUL  PTCLDY     0  -6  76 CALM      30.31S
LAKE ELMO      FAIR      -6 -11  77 CALM      30.31F
$$
MNZ001>005-007-008-013>017-022>024-027-028-111300-
   Northwest Minnesota

CITY           SKY/WX    TMP DP  RH WIND       PRES   REMARKS
BEMIDJI        PTCLDY   -19 -24  77 CALM      30.24S
HALLOCK        CLOUDY    -2  -8  78 SE5       30.27S WCI -12
ROSEAU         CLOUDY   -13 -18  77 S5        30.25S WCI -25
WARROAD        CLOUDY    -8 -13  77 CALM      30.24F
THIEF RVR FALL CLOUDY    -8 -27  37 SE5       30.27S WCI -19
CROOKSTON      CLOUDY     0  -6  78 SE5       30.29F WCI -10
FOSSTON        CLOUDY   -18 -24  76 CALM      30.25S
DETROIT LAKES  PTCLDY    -4  -8  84 E5        30.25S WCI -15
MOORHEAD       CLOUDY     3  -2  78 NE3       30.29S
PARK RAPIDS    PTCLDY   -14 -21  71 CALM      30.23R
MAHNOMEN       FAIR     -10 -15  80 E6        30.25F WCI -24
$$
MNZ006-009>011-018-025>026-111300-
   North Central Minnesota

CITY           SKY/WX    TMP DP  RH WIND       PRES   REMARKS
BAUDETTE       CLOUDY   -12 -18  74 S3        30.22F
FLAG ISLAND    CLOUDY    -6 -11  77 CALM      30.22F
INTL FALLS     CLOUDY   -10 -15  78 CALM      30.23F
6HR MIN TEMP: -23; 6HR MAX TEMP: -10;

WASKISH        CLOUDY   -17 -20  83 CALM      30.24S
LONGVILLE      PTCLDY   -18 -24  76 CALM      30.25S
GRAND RAPIDS   CLOUDY   -17 -24  70 CALM      30.23S
CRANE LAKE     CLOUDY   -17 -20  83 CALM      30.26S
ORR            CLOUDY   -15 -20  76 CALM      30.19F
COOK           CLOUDY   -18 -24  76 CALM      30.23R
WALKER         FAIR     -18 -24  75 CALM      30.24S
$$
MNZ012-019>021-037-111300-
   Northeast Minnesota

CITY           SKY/WX    TMP DP  RH WIND       PRES   REMARKS
DULUTH         CLOUDY    -9 -15  75 NW6       30.20S WCI -22
6HR MIN TEMP: -10; 6HR MAX TEMP:  -5;

ELY            CLOUDY   -20 -26  76 CALM      30.20S
HIBBING        CLOUDY   -23 -28  78 CALM      30.23R
EVELETH        CLOUDY   -20 -27  69 W5        30.24R WCI -33
DULUTH HARBOR  CLOUDY    -4 -11  71 SW8       30.32S WCI -19
TWO HARBORS    CLOUDY    -6 -11  77 W3        30.21S
SILVER BAY     CLOUDY    -8 -11  84 CALM      30.20S
GRAND MARAIS     N/A    -11 -17  75 CALM      30.26R
G MARAIS ARPRT CLOUDY    -9 -17  70 NW3       30.10R
$$
MNZ029>031-032-039>041-046>048-054>057-064-111300-
   West Central Minnesota

CITY           SKY/WX    TMP DP  RH WIND       PRES   REMARKS
FERGUS FALLS   CLOUDY     3   0  85 CALM      30.30S
WHEATON        CLOUDY     3   1  92 CALM      30.30S
MORRIS         CLOUDY     0  -6  78 CALM      30.26F
ALEXANDRIA     CLOUDY     1  -6  72 SE3       30.25S
ELBOW LAKE     MOCLDY     2  -1  88 CALM      30.26S
WADENA         CLOUDY    -8 -11  84 CALM      30.25S
GLENWOOD       CLOUDY     1  -4  78 SE3       30.26F
APPLETON       CLOUDY     0  -4  85 SW3       30.29S
BENSON         CLOUDY     0  -6  78 CALM      30.28S
ORTONVILLE     CLOUDY     0  -6  78 CALM      30.27F
MADISON        CLOUDY     1  -2  85 CALM      30.29F
WILLMAR        FAIR       3   1  92 CALM      30.29S
$$
MNZ033>034-036-042>043-049>051-058-059-111300-
   Central Minnesota

CITY           SKY/WX    TMP DP  RH WIND       PRES   REMARKS
ST CLOUD       PTCLDY    -3  -8  79 CALM      30.29S
6HR MIN TEMP:  -3; 6HR MAX TEMP:   6;

SAUK CENTRE    FAIR      -6 -10  85 CALM      30.28S
PAYNESVILLE    CLOUDY    -4  -7  86 CALM      30.29S
AITKIN         PTCLDY   -17 -26  63 CALM      30.25S
PINE RIVER     PTCLDY   -17 -20  83 CALM      30.29S
BRAINERD       PTCLDY   -14 -19  79 CALM      30.27R
STAPLES        CLOUDY   -11 -15  84 CALM      30.26R
LONG PRAIRIE   FAIR      -6 -11  77 CALM      30.27R
LITTLE FALLS   CLOUDY    -9 -15  77 CALM      30.30R
LITCHFIELD     PTCLDY     1  -2  85 CALM      30.30R
BUFFALO        CLOUDY    -2  -6  82 CALM      30.32R
MAPLE LAKE     CLOUDY    -1  -4  87 CALM      30.31R
$$
MNZ037-044-045-052-053-111300-
   East Central Minnesota

CITY           SKY/WX    TMP DP  RH WIND       PRES   REMARKS
PRINCETON      CLOUDY    -4  -9  77 CALM      30.29S
MORA           PTCLDY    -8 -13  77 CALM      30.31R
CAMBRIDGE      CLOUDY    -4 -11  71 CALM      30.29R
RUSH CITY      PTCLDY    -4 -10  75 CALM      30.30S
MOOSE LAKE     CLOUDY   -17 -22  76 CALM      30.26F
HINCKLEY       FAIR      -6  -9  84 CALM      30.28S
CLOQUET        CLOUDY   -11 -17  77 CALM      30.23F
MCGREGOR       CLOUDY   -15 -18  84 CALM      30.26S
$$
MNZ071>073-080-081-089-090-097-098-111300-
   Southwest Minnesota

CITY           SKY/WX    TMP DP  RH WIND       PRES   REMARKS
MONTEVIDEO     CLOUDY     1  -2  85 CALM      30.31S
GRANITE FALLS  CLOUDY    -1  -4  85 CALM      30.31F
CANBY          CLOUDY     3   0  87 SW3       30.29S
MARSHALL       CLOUDY     0  -4  83 SW5       30.29R WCI -10
REDWOOD FALLS  PTCLDY     1  -2  87 CALM      30.30S
OLIVIA         PTCLDY     5   1  85 CALM      30.29F
PIPESTONE      CLOUDY    14   3  62 SE5       30.22S WCI   6
WINDOM         CLOUDY    -8  -9  92 CALM      30.26F
WORTHINGTON    CLOUDY     9   1  72 E3        30.25F
JACKSON        CLOUDY     3  -2  78 CALM      30.27F
TRACY          CLOUDY     1  -3  85 CALM      30.27S
SLAYTON        CLOUDY     1  -1  91 CALM      30.25F
$$
MNZ065>067-074>077-082>085-091>093-111300-
   South Central Minnesota

CITY           SKY/WX    TMP DP  RH WIND       PRES   REMARKS
MANKATO        CLOUDY     1  -2  85 W5        30.30R WCI  -8
NEW ULM        CLOUDY     0  -6  78 CALM      30.31R
ST JAMES       CLOUDY    -2  -6  84 CALM      30.31S
FAIRMONT       CLOUDY    -2  -9  71 CALM      30.28R
GLENCOE        CLOUDY     0  -3  89 CALM      30.30R
FARIBAULT        N/A     -8 -11  84 CALM      30.30R
OWATONNA       PTCLDY    -2  -8  78 CALM      30.29R
WASECA         PTCLDY    -2  -8  78 CALM      30.31R
ALBERT LEA       N/A     -4  -8  84 CALM      30.29R
$$
MNZ078>079-086>088-094>096-111300-
   Southeast Minnesota

CITY           SKY/WX    TMP DP  RH WIND       PRES   REMARKS
ROCHESTER      PTCLDY     2  -5  72 NW5       30.26R WCI  -8
6HR MIN TEMP:   0; 6HR MAX TEMP:   5;

RED WING       PTCLDY    -6 -11  77 CALM      30.31S
STANTON        PTCLDY    -7 -12  78 CALM      30.30R
DODGE CENTER   PTCLDY    -6  -9  84 CALM      30.26S
WINONA         PTCLDY     0  -6  78 W3        30.34R
AUSTIN         CLOUDY    -2  -6  84 CALM      30.28R
PRESTON        PTCLDY     0  -6  78 NW5       30.27R WCI -10
$$
ABBREVIATIONS USED IN REMARKS
   TC - TEMPERATURES IN CELSIUS
  WCI - WIND CHILL INDEX
   HX - HEAT INDEX
  VSB - VISIBILITY
$$



USA.gov is the U.S. government's official web portal to all federal, state and local government web resources and services.